Weather in Pavelka

Russia / Lipetsk Oblast     52°54′48″N   39°18′32″E
temp.,
°C
wind,
m/s
gust,
m/s
humid.,
%
clouds,
%
prec.,
mm/h
press.,
hPa
HPBL,
m
9 may, sun
sun900:00+9ssw5995100 0.3 1005325
03:00+8sw71094100 0.3 1006694
06:00+4sw71195100 0.1 1007605
09:00+3wnw81396100 0.1 1010662
12:00+3nw81396100 0.2 1013762
15:00+7nw71282100 0.4 10151137
18:00+7nnw6137697 0.2 10171265
21:00+5nw49885 0.2 1019180
10 may, mon
mon1000:00+4nnw38924 0.0 1021152
03:00+3nnw5148850 0.0 1023305
06:00+4n5138592 0.0 1025385
09:00+9n9146149 0.0 10251215
12:00+11nne1012503 0.0 10251384
15:00+13nne912505 0.0 10241481
18:00+12ne8145990 0.0 10241197
21:00+10nne816626 0.0 1025668
11 may, tue
tue1100:00+8ne8167699 0.0 1025600
03:00+7ne7158287 0.0 1025471
06:00+7ne7158592 0.0 1025475
09:00+10ne81479100 0.1 1025562
12:00+11ne61184100 0.5 1025503
15:00+14ene6979100 0.5 1025786
18:00+13ne369591 0.9 1025224
21:00+12se3699100 9.7 1024348
12 may, wed
wed1200:00+11ene2396100 3.8 102497
03:00+10ese1399100 7.1 1023213
06:00+10sse0199100 1.9 102196
09:00+8wsw4796100 14.1 1022285
12:00+14se337124 0.0 1023996
15:00+17ene456344 0.0 10231302
18:00+16ene367475 0.0 1022687
21:00+13ne3788100 0.0 1021197
13 may, thu
thu1300:00+14e51293100 0.3 1020417
03:00+13e51196100 0.8 1019449
06:00+12e51093100 0.3 1018359
09:00+13ese5109398 0.4 1018444
12:00+18se677798 0.2 1018944
15:00+17ese478470 0.3 1018482
18:00+18se4776100 0.4 1018322
21:00+15ese3485100 0.5 101859